Westminster, MD

7:39 PM EDT on July 25, 2017 (GMT -0400)
Carroll County Regional-Poage

Weather History for KDMW - August, 2013

Change the Weather History Date:

Monday, August 5, 2013

  Actual Average (KTHV) Record (KTHV)
Temperature  
Mean Temperature 68 °F -  
Max Temperature 78 °F 84 °F 91 °F (2005)
Min Temperature 57 °F 60 °F 53 °F (2013)
Cooling Degree Days 2    
Growing Degree Days 18 (Base 50)    
Moisture  
Dew Point 55 °F    
Average Humidity 63    
Maximum Humidity 88    
Minimum Humidity 36    
Precipitation  
Precipitation 0.00 in - - ()
Sea Level Pressure  
Sea Level Pressure 30.08 in    
Wind  
Wind Speed 0 mph (WSW)    
Max Wind Speed 4 mph    
Max Gust Speed -    
Visibility 10 miles    
Events      
Averages and records for this station are not official NWS values.
T = Trace of Precipitation, MM = Missing Value Source: NWS Daily Summary

Daily Weather History Graph

Daily Weather History Graph

Search for Another Location

Airport or City:

Trip Planner

Search our weather history database for the weather conditions in past years. The results will help you decide how hot, cold, wet, or windy it might be!

Date:

Astronomy

Aug. 05, 2013 Rise Set
Actual Time 6:11 AM EDT 8:16 PM EDT
Civil Twilight 5:41 AM EDT 8:45 PM EDT
Nautical Twilight 5:05 AM EDT 9:21 PM EDT
Astronomical Twilight 4:25 AM EDT 10:01 PM EDT
Moon 5:04 AM EDT (8/5) 7:15 PM EDT (8/5)
Length of Visible Light 15h 04m
Length of Day
14h 04m
Waning Crescent, 1% of the Moon is Illuminated
Aug 5
Waning Crescent
Aug 6
New
Aug 14
First Quarter
Aug 20
Full
Aug 28
Last Quarter

Hourly Weather History & Observations

Time (EDT) Temp. Dew Point Humidity Pressure Visibility Wind Dir Wind Speed Gust Speed Precip Events Conditions
12:00 AM 66.2 °F 51.8 °F 60% 30.06 in 10.0 mi Calm Calm - N/A   Clear
12:20 AM 66.2 °F 53.6 °F 64% 30.07 in 10.0 mi Calm Calm - N/A   Unknown
12:40 AM 66.2 °F 53.6 °F 64% 30.07 in 10.0 mi Calm Calm - N/A   Unknown
1:00 AM 64.4 °F 55.4 °F 73% 30.07 in 10.0 mi Calm Calm - N/A   Clear
1:20 AM 62.6 °F 53.6 °F 72% 30.06 in 10.0 mi Calm Calm - N/A   Clear
1:40 AM 62.6 °F 53.6 °F 72% 30.06 in 10.0 mi Calm Calm - N/A   Clear
2:00 AM 62.6 °F 53.6 °F 72% 30.06 in 10.0 mi Calm Calm - N/A   Clear
2:20 AM 62.6 °F 55.4 °F 77% 30.06 in 10.0 mi Calm Calm - N/A   Clear
2:40 AM 60.8 °F 57.2 °F 88% 30.07 in 10.0 mi Calm Calm - N/A   Clear
3:00 AM 60.8 °F 55.4 °F 82% 30.08 in 10.0 mi Calm Calm - N/A   Clear
3:20 AM 60.8 °F 55.4 °F 82% 30.08 in 10.0 mi Calm Calm - N/A   Clear
3:40 AM 60.8 °F 55.4 °F 82% 30.08 in 10.0 mi Calm Calm - N/A   Clear
4:00 AM 60.8 °F 53.6 °F 77% 30.08 in 10.0 mi Calm Calm - N/A   Clear
4:20 AM 60.8 °F 53.6 °F 77% 30.08 in 10.0 mi Calm Calm - N/A   Clear
5:00 AM 60.8 °F 53.6 °F 77% 30.08 in 10.0 mi Calm Calm - N/A   Clear
5:20 AM 59.0 °F 53.6 °F 82% 30.08 in 10.0 mi Calm Calm - N/A   Clear
5:40 AM 59.0 °F 53.6 °F 82% 30.09 in 10.0 mi Calm Calm - N/A   Clear
6:00 AM 57.2 °F 53.6 °F 88% 30.10 in 10.0 mi Calm Calm - N/A   Clear
6:20 AM 57.2 °F 53.6 °F 88% 30.10 in - Calm Calm - N/A   Clear
6:40 AM 57.2 °F 53.6 °F 88% 30.11 in - Calm Calm - N/A   Clear
7:00 AM 57.2 °F 53.6 °F 88% 30.11 in 10.0 mi Calm Calm - N/A   Clear
7:20 AM 59.0 °F 53.6 °F 82% 30.12 in 10.0 mi Calm Calm - N/A   Clear
7:40 AM 60.8 °F 55.4 °F 82% 30.12 in 10.0 mi Calm Calm - N/A   Clear
9:40 AM 66.2 °F 55.4 °F 68% 30.13 in 10.0 mi Calm Calm - N/A   Clear
10:20 AM 69.8 °F 55.4 °F 60% 30.13 in 10.0 mi Calm Calm - N/A   Clear
10:40 AM 69.8 °F 55.4 °F 60% 30.13 in 10.0 mi Calm Calm - N/A   Clear
11:00 AM 69.8 °F 55.4 °F 60% 30.13 in 10.0 mi Calm Calm - N/A   Clear
11:20 AM 71.6 °F 53.6 °F 53% 30.13 in 10.0 mi Calm Calm - N/A   Clear
11:40 AM 71.6 °F 53.6 °F 53% 30.13 in 10.0 mi Calm Calm - N/A   Clear
12:00 PM 71.6 °F 51.8 °F 50% 30.13 in 10.0 mi North - - N/A   Scattered Clouds
12:20 PM 71.6 °F 53.6 °F 53% 30.12 in 10.0 mi North - - N/A   Mostly Cloudy
12:45 PM 71.6 °F 53.6 °F 53% 30.11 in 10.0 mi Calm Calm - N/A   Mostly Cloudy
1:05 PM 73.4 °F 51.8 °F 47% 30.10 in 10.0 mi Calm Calm - N/A   Scattered Clouds
1:20 PM 73.4 °F 51.8 °F 47% 30.10 in 10.0 mi Calm Calm - N/A   Scattered Clouds
1:45 PM 73.4 °F 51.8 °F 47% 30.10 in 10.0 mi Calm Calm - N/A   Scattered Clouds
2:05 PM 73.4 °F 51.8 °F 47% 30.09 in 10.0 mi Calm Calm - N/A   Clear
2:25 PM 73.4 °F 51.8 °F 47% 30.08 in 10.0 mi Calm Calm - N/A   Mostly Cloudy
2:45 PM 75.2 °F 53.6 °F 47% 30.07 in 10.0 mi Calm Calm - N/A   Scattered Clouds
3:05 PM 75.2 °F 53.6 °F 47% 30.07 in 10.0 mi Calm Calm - N/A   Scattered Clouds
3:25 PM 75.2 °F 53.6 °F 47% 30.06 in 10.0 mi Calm Calm - N/A   Mostly Cloudy
3:45 PM 75.2 °F 51.8 °F 44% 30.06 in 10.0 mi Calm Calm - N/A   Overcast
4:05 PM 75.2 °F 55.4 °F 50% 30.06 in 10.0 mi Calm Calm - N/A   Scattered Clouds
4:25 PM 77.0 °F 53.6 °F 44% 30.06 in 10.0 mi Calm Calm - N/A   Scattered Clouds
4:45 PM 78.8 °F 53.6 °F 42% 30.05 in 10.0 mi WSW 3.5 mph - N/A   Scattered Clouds
5:05 PM 77.0 °F 53.6 °F 44% 30.05 in 10.0 mi Calm Calm - N/A   Scattered Clouds
5:25 PM 77.0 °F 53.6 °F 44% 30.06 in 10.0 mi Calm Calm - N/A   Scattered Clouds
5:45 PM 77.0 °F 48.2 °F 36% 30.05 in 10.0 mi Calm Calm - N/A   Scattered Clouds
6:05 PM 77.0 °F 53.6 °F 44% 30.06 in 10.0 mi Calm Calm - N/A   Scattered Clouds
6:25 PM 77.0 °F 53.6 °F 44% 30.07 in 10.0 mi Calm Calm - N/A   Scattered Clouds
6:45 PM 75.2 °F 55.4 °F 50% 30.06 in 10.0 mi Calm Calm - N/A   Clear
7:05 PM 75.2 °F 55.4 °F 50% 30.07 in 10.0 mi Calm Calm - N/A   Clear
7:25 PM 75.2 °F 55.4 °F 50% 30.07 in 10.0 mi Calm Calm - N/A   Clear
7:45 PM 73.4 °F 55.4 °F 53% 30.08 in 10.0 mi Calm Calm - N/A   Clear
8:05 PM 73.4 °F 57.2 °F 57% 30.07 in 10.0 mi Calm Calm - N/A   Clear
8:25 PM 71.6 °F 57.2 °F 60% 30.07 in 10.0 mi Calm Calm - N/A   Clear
8:45 PM 71.6 °F 57.2 °F 60% 30.08 in 10.0 mi Calm Calm - N/A   Clear
9:05 PM 71.6 °F 57.2 °F 60% 30.07 in 10.0 mi Calm Calm - N/A   Clear
9:20 PM 69.8 °F 59.0 °F 68% 30.08 in 10.0 mi Calm Calm - N/A   Clear
9:45 PM 69.8 °F 59.0 °F 68% 30.07 in 10.0 mi Calm Calm - N/A   Clear
10:05 PM 69.8 °F 59.0 °F 68% 30.07 in 10.0 mi Calm Calm - N/A   Clear
10:25 PM 68.0 °F 57.2 °F 68% 30.06 in 10.0 mi Calm Calm - N/A   Clear
10:45 PM 68.0 °F 59.0 °F 73% 30.06 in 10.0 mi Calm Calm - N/A   Clear
11:05 PM 68.0 °F 59.0 °F 73% 30.06 in 10.0 mi Calm Calm - N/A   Clear
11:25 PM 66.2 °F 60.8 °F 83% 30.07 in 10.0 mi Calm Calm - N/A   Clear
11:45 PM 66.2 °F 60.8 °F 83% 30.07 in 10.0 mi Calm Calm - N/A   Clear